| time (UTC) | temp F | wind direction | speed MPH | gust MPH | rain 1hr in | rain 24hr in | rain mn in | humidity % | barometer mb |
| 20260508131549 | 50 | 259 | 6.0 | 15.0 | 0.00 | 0.34 | 0.00 | 67 | 1005.8 |
| 20260508130051 | 50 | 226 | 7.0 | 16.0 | 0.00 | 0.34 | 0.00 | 67 | 1005.6 |
| 20260508124551 | 49 | 281 | 10.0 | 17.0 | 0.00 | 0.59 | 0.00 | 65 | 1005.6 |
| 20260508123054 | 49 | 276 | 5.0 | 17.0 | 0.00 | 0.59 | 0.00 | 67 | 1005.6 |
| 20260508121552 | 49 | 260 | 8.0 | 15.0 | 0.00 | 0.59 | 0.00 | 66 | 1005.5 |
| 20260508120055 | 49 | 298 | 5.0 | 14.0 | 0.00 | 0.59 | 0.00 | 70 | 1005.4 |
| 20260508114553 | 48 | 324 | 6.0 | 16.0 | 0.00 | 0.59 | 0.00 | 70 | 1005.3 |
| 20260508113102 | 48 | 288 | 4.0 | 11.0 | 0.00 | 0.59 | 0.00 | 73 | 1005.1 |
| 20260508111548 | 47 | 244 | 6.0 | 12.0 | 0.00 | 0.59 | 0.00 | 76 | 1005.2 |
| 20260508110050 | 45 | 300 | 4.0 | 10.0 | 0.00 | 0.59 | 0.00 | 81 | 1005.0 |
| 20260508104549 | 43 | 234 | 4.0 | 10.0 | 0.00 | 0.59 | 0.00 | 86 | 1005.0 |
| 20260508103049 | 42 | 265 | 4.0 | 8.0 | 0.00 | 0.59 | 0.00 | 91 | 1004.8 |
| 20260508101548 | 40 | 281 | 2.0 | 5.0 | 0.00 | 0.59 | 0.00 | 93 | 1004.8 |
| 20260508100048 | 39 | 286 | 2.0 | 6.0 | 0.00 | 0.59 | 0.00 | 94 | 1004.6 |
| 20260508094550 | 38 | 273 | 3.0 | 6.0 | 0.00 | 0.60 | 0.00 | 94 | 1004.4 |
| 20260508093052 | 38 | 332 | 2.0 | 8.0 | 0.00 | 0.60 | 0.00 | 94 | 1004.3 |
| 20260508091551 | 38 | 257 | 2.0 | 8.0 | 0.00 | 0.60 | 0.00 | 94 | 1004.2 |
| 20260508090055 | 38 | 277 | 2.0 | 6.0 | 0.00 | 0.60 | 0.00 | 94 | 1004.0 |
| 20260508084550 | 38 | 291 | 2.0 | 5.0 | 0.00 | 0.60 | 0.00 | 94 | 1003.9 |
| 20260508083046 | 38 | 296 | 1.0 | 5.0 | 0.00 | 0.60 | 0.00 | 94 | 1003.7 |
| 20260508081557 | 38 | 305 | 2.0 | 6.0 | 0.00 | 0.60 | 0.00 | 94 | 1003.8 |
| 20260508080051 | 39 | 293 | 2.0 | 5.0 | 0.00 | 0.60 | 0.00 | 94 | 1003.8 |
| 20260508074548 | 39 | 292 | 2.0 | 7.0 | 0.00 | 0.66 | 0.00 | 94 | 1003.9 |
| 20260508073053 | 40 | 293 | 2.0 | 5.0 | 0.00 | 0.66 | 0.00 | 94 | 1003.7 |
| 20260508071550 | 40 | 351 | 1.0 | 5.0 | 0.00 | 0.66 | 0.00 | 94 | 1003.8 |
| 20260508070057 | 40 | 342 | 1.0 | 4.0 | 0.00 | 0.66 | 0.00 | 94 | 1003.8 |
| 20260508064741 | 40 | 315 | 1.0 | 5.0 | 0.00 | 0.93 | 0.00 | 94 | 1004.0 |
| 20260508063053 | 39 | 331 | 1.0 | 5.0 | 0.00 | 0.93 | 0.00 | 94 | 1003.9 |
| 20260508061548 | 39 | 329 | 1.0 | 5.0 | 0.00 | 0.93 | 0.00 | 94 | 1003.9 |
| 20260508060055 | 39 | 349 | 1.0 | 3.0 | 0.00 | 0.93 | 0.00 | 94 | 1003.9 |
| 20260508054558 | 38 | 329 | 1.0 | 4.0 | 0.00 | 1.25 | 0.00 | 93 | 1004.1 |
| 20260508053054 | 38 | 0 | 0.0 | 6.0 | 0.00 | 1.25 | 0.00 | 93 | 1003.8 |
| 20260508051552 | 38 | 286 | 1.0 | 8.0 | 0.00 | 1.25 | 0.00 | 93 | 1003.9 |
| 20260508050054 | 38 | 277 | 1.0 | 4.0 | 0.00 | 1.25 | 0.00 | 93 | 1003.9 |
| 20260508044603 | 38 | 305 | 1.0 | 4.0 | 0.00 | 1.28 | 0.00 | 93 | 1004.0 |
| 20260508043053 | 37 | 278 | 1.0 | 3.0 | 0.00 | 1.28 | 0.00 | 92 | 1004.0 |
| 20260508041554 | 37 | 265 | 1.0 | 2.0 | 0.00 | 1.28 | 0.00 | 92 | 1004.0 |
| 20260508040058 | 38 | 223 | 0.0 | 2.0 | 0.00 | 1.28 | 0.00 | 92 | 1004.5 |
| 20260508034554 | 38 | 157 | 0.0 | 2.0 | 0.00 | 1.28 | 0.00 | 91 | 1005.1 |
| 20260508033055 | 38 | 170 | 0.0 | 3.0 | 0.00 | 1.28 | 0.00 | 91 | 1004.8 |
| 20260508031553 | 39 | 0 | 0.0 | 2.0 | 0.00 | 1.28 | 0.00 | 91 | 1004.7 |
| 20260508030059 | 39 | 168 | 0.0 | 3.0 | 0.00 | 1.28 | 0.00 | 91 | 1004.6 |
| 20260508024552 | 40 | 0 | 0.0 | 3.0 | 0.00 | 1.28 | 1.28 | 90 | 1004.5 |
| 20260508023047 | 41 | 0 | 0.0 | 1.0 | 0.00 | 1.28 | 1.28 | 89 | 1004.1 |
| 20260508021547 | 42 | 0 | 0.0 | 2.0 | 0.00 | 1.28 | 1.28 | 88 | 1004.4 |
| 20260508020049 | 43 | 0 | 0.0 | 2.0 | 0.00 | 1.28 | 1.28 | 88 | 1004.7 |
| 20260508014548 | 44 | 261 | 1.0 | 5.0 | 0.00 | 1.28 | 1.28 | 87 | 1004.6 |
| 20260508013052 | 44 | 0 | 2.0 | 7.0 | 0.00 | 1.28 | 1.28 | 87 | 1004.6 |
| 20260508011550 | 45 | 229 | 1.0 | 8.0 | 0.00 | 1.28 | 1.28 | 87 | 1004.8 |
| 20260508010054 | 45 | 217 | 3.0 | 7.0 | 0.00 | 1.28 | 1.28 | 86 | 1004.6 |
| 20260508004553 | 45 | 244 | 3.0 | 7.0 | 0.00 | 1.28 | 1.28 | 86 | 1004.5 |
| 20260508003056 | 46 | 252 | 2.0 | 8.0 | 0.00 | 1.28 | 1.28 | 85 | 1004.6 |
| 20260508001553 | 46 | 229 | 1.0 | 7.0 | 0.00 | 1.28 | 1.28 | 84 | 1004.2 |
| 20260508000053 | 47 | 271 | 2.0 | 7.0 | 0.00 | 1.28 | 1.28 | 83 | 1003.9 |
| 20260507234602 | 47 | 283 | 2.0 | 8.0 | 0.00 | 1.28 | 1.28 | 82 | 1004.0 |
| 20260507233052 | 48 | 273 | 3.0 | 7.0 | 0.00 | 1.28 | 1.28 | 81 | 1003.8 |
| 20260507231557 | 48 | 241 | 4.0 | 11.0 | 0.00 | 1.28 | 1.28 | 79 | 1003.7 |
| 20260507230052 | 49 | 240 | 4.0 | 10.0 | 0.00 | 1.28 | 1.28 | 80 | 1003.6 |
| 20260507224555 | 50 | 291 | 3.0 | 11.0 | 0.00 | 1.28 | 1.28 | 80 | 1003.8 |
| 20260507223058 | 50 | 284 | 6.0 | 12.0 | 0.00 | 1.28 | 1.28 | 77 | 1003.6 |
| 20260507221552 | 52 | 269 | 4.0 | 13.0 | 0.00 | 1.28 | 1.28 | 76 | 1003.5 |
| 20260507220054 | 51 | 263 | 3.0 | 11.0 | 0.00 | 1.28 | 1.28 | 77 | 1003.6 |
| 20260507214558 | 52 | 251 | 4.0 | 13.0 | 0.00 | 1.28 | 1.28 | 76 | 1003.7 |
| 20260507213052 | 52 | 254 | 6.0 | 12.0 | 0.00 | 1.28 | 1.28 | 76 | 1003.8 |
| 20260507211552 | 52 | 280 | 6.0 | 13.0 | 0.00 | 1.28 | 1.28 | 77 | 1003.9 |
| 20260507210051 | 52 | 283 | 5.0 | 14.0 | 0.00 | 1.28 | 1.28 | 79 | 1003.8 |
| 20260507204550 | 53 | 305 | 6.0 | 13.0 | 0.00 | 1.28 | 1.28 | 79 | 1003.8 |
| 20260507203100 | 53 | 259 | 6.0 | 11.0 | 0.00 | 1.28 | 1.28 | 79 | 1003.6 |
| 20260507201551 | 53 | 269 | 8.0 | 13.0 | 0.00 | 1.28 | 1.28 | 80 | 1003.5 |
| 20260507200054 | 53 | 305 | 6.0 | 12.0 | 0.00 | 1.28 | 1.28 | 80 | 1003.5 |
| 20260507194547 | 54 | 263 | 6.0 | 13.0 | 0.00 | 1.28 | 1.28 | 81 | 1003.5 |
| 20260507193055 | 54 | 192 | 6.0 | 12.0 | 0.00 | 1.28 | 1.28 | 81 | 1003.4 |
| 20260507191553 | 54 | 246 | 7.0 | 14.0 | 0.00 | 1.28 | 1.28 | 81 | 1003.4 |
| 20260507190052 | 54 | 319 | 5.0 | 13.0 | 0.00 | 1.28 | 1.28 | 83 | 1003.3 |
| 20260507184549 | 56 | 276 | 4.0 | 10.0 | 0.00 | 1.28 | 1.28 | 86 | 1003.3 |
| 20260507183054 | 54 | 276 | 3.0 | 10.0 | 0.00 | 1.28 | 1.28 | 89 | 1003.1 |
| 20260507181547 | 54 | 259 | 3.0 | 11.0 | 0.00 | 1.28 | 1.28 | 91 | 1003.4 |
| 20260507180046 | 54 | 234 | 3.0 | 9.0 | 0.00 | 1.28 | 1.28 | 93 | 1003.4 |
| 20260507174603 | 52 | 275 | 2.0 | 6.0 | 0.00 | 1.28 | 1.28 | 95 | 1003.3 |
| 20260507173059 | 51 | 51 | 3.0 | 10.0 | 0.00 | 1.28 | 1.28 | 96 | 1002.7 |
| 20260507171612 | 50 | 354 | 4.0 | 8.0 | 0.00 | 1.28 | 1.28 | 96 | 1003.6 |
| 20260507170057 | 49 | 298 | 3.0 | 10.0 | 0.00 | 1.28 | 1.28 | 96 | 1003.9 |
| 20260507164605 | 49 | 274 | 1.0 | 8.0 | 0.00 | 1.28 | 1.28 | 96 | 1003.7 |
| 20260507163051 | 48 | 356 | 5.0 | 11.0 | 0.01 | 1.28 | 1.28 | 96 | 1004.1 |
| 20260507161550 | 48 | 348 | 1.0 | 7.0 | 0.03 | 1.28 | 1.28 | 96 | 1003.1 |
| 20260507160051 | 48 | 334 | 2.0 | 10.0 | 0.03 | 1.27 | 1.27 | 96 | 1004.3 |
| 20260507154555 | 48 | 263 | 4.0 | 10.0 | 0.05 | 1.27 | 1.27 | 96 | 1004.5 |
| 20260507153052 | 48 | 227 | 1.0 | 8.0 | 0.07 | 1.26 | 1.26 | 96 | 1003.7 |
| 20260507151552 | 48 | 177 | 2.0 | 6.0 | 0.07 | 1.25 | 1.25 | 96 | 1003.6 |
| 20260507150047 | 48 | 143 | 1.0 | 4.0 | 0.08 | 1.23 | 1.23 | 96 | 1003.8 |
| 20260507144553 | 48 | 225 | 1.0 | 6.0 | 0.08 | 1.22 | 1.22 | 96 | 1004.2 |
| 20260507143055 | 48 | 138 | 3.0 | 5.0 | 0.09 | 1.19 | 1.19 | 96 | 1004.3 |
| 20260507141556 | 48 | 125 | 2.0 | 5.0 | 0.16 | 1.18 | 1.18 | 96 | 1004.5 |
| 20260507140051 | 47 | 130 | 1.0 | 3.0 | 0.20 | 1.14 | 1.14 | 96 | 1004.2 |
| 20260507134555 | 47 | 0 | 1.0 | 3.0 | 0.29 | 1.13 | 1.13 | 96 | 1004.3 |
| 20260507133050 | 47 | 208 | 1.0 | 3.0 | 0.33 | 1.10 | 1.10 | 96 | 1005.0 |